Location: Mountain_View
(35.6670°N, 81.4000°W)
Time: 05:04:26
(UTC-05:00)

Daily predictions for brighter satellites

Satellite Brightness Start Highest point End
(mag) Time Altitude Azimuth Time Altitude Azimuth Time Altitude Azimuth
CZ-3 R/B 4.4 01:26:29 10° W 02:48:32 53° SE 02:57:16 10° ESE
Cosmos 2333 Rocket 3.9 04:39:22 26° SSE 04:39:22 26° SSE 04:41:43 10° SSE
Cosmos 1725 Rocket 4.4 04:39:47 10° S 04:45:53 61° E 04:52:04 10° NNE
Cosmos 2219 Rocket 4.2 04:56:21 16° S 04:56:21 16° S 04:57:24 10° S
OAO 2 Rocket 3.8 05:09:34 55° E 05:09:34 55° E 05:13:26 10° E
ISS -0.3 05:16:07 14° NE 05:16:07 14° NE 05:17:02 10° ENE
Cosmos 540 Rocket 3.4 05:17:12 79° SE 05:17:12 79° SE 05:22:02 10° SSE
Cosmos 2237 Rocket 2.5 05:22:48 51° SSW 05:22:48 51° SSW 05:27:17 10° S
SL-16 R/B 2.6 05:22:49 27° N 05:25:49 60° ENE 05:31:24 10° SE
Aureole 2 Rocket 3.2 05:26:05 65° E 05:26:05 65° E 05:29:59 10° SSE
Cosmos 1743 Rocket 3.7 05:27:58 62° NNE 05:28:34 73° E 05:32:55 10° SSE
Cosmos 2297 Rocket 3.3 05:33:23 28° NNW 05:33:23 28° NNW 05:36:21 10° N
Cosmos 2233 Rocket 3.9 05:28:55 10° S 05:35:08 87° W 05:41:28 10° N
Cosmos 1842 Rocket 3.5 05:30:58 10° S 05:35:17 83° E 05:39:40 10° N
ATLAS 2A CENTAUR R/B 4.1 05:36:03 25° SSW 05:36:36 26° SSW 05:39:11 10° SE
COSMO-SKYMED 1 2.9 05:32:38 10° SSE 05:36:55 65° ENE 05:39:28 24° N
PSLV R/B 4.1 05:38:55 48° E 05:38:55 48° E 05:41:29 10° ENE
Cosmos 2227 Rocket 4.0 05:46:53 16° NNW 05:46:53 16° NNW 05:48:22 10° N
Cosmos 2151 4.0 05:40:18 10° N 05:44:22 45° E 05:48:26 10° SSE
Meteor 1-16 Rocket 4.2 05:42:08 10° S 05:47:35 77° E 05:52:56 10° NNE
Cosmos 1271 Rocket 3.4 05:45:46 10° S 05:49:30 55° E 05:53:14 10° NNE
Cosmos 1340 Rocket 4.5 05:45:55 10° NNE 05:49:30 33° ENE 05:53:06 10° SE
Meteor 1-28 Rocket 3.7 05:48:46 10° SSE 05:52:28 58° ENE 05:55:51 12° N
BREEZE-M DEB (TANK) 3.8 05:52:33 39° WSW 05:53:01 40° WSW 05:55:55 10° SSE
Cosmos 1500 Rocket 3.4 05:52:33 19° NNW 05:55:41 77° W 06:00:07 10° S
Ariane Rocket 3.1 05:53:50 10° NNE 05:58:57 81° ESE 06:04:03 10° S
SL-14 R/B 3.5 05:55:58 10° N 06:00:01 73° E 06:04:04 10° SSE
Cosmos 220 Rocket 4.4 06:01:45 40° WNW 06:01:51 40° WNW 06:06:01 10° N
Cosmos 2346 Rocket 4.3 05:57:29 10° NNW 06:03:34 69° W 06:09:34 10° S
Meteor 2-1 Rocket 4.3 06:06:01 10° S 06:11:34 79° E 06:17:17 10° N
DMSP B5D1-3 4.4 06:07:01 10° S 06:12:07 69° WSW 06:17:14 10° NNW
CZ-2C R/B 3.5 06:12:55 10° NNE 06:17:17 44° E 06:21:38 10° S
Cosmos 2333 Rocket 4.2 06:21:27 11° WSW 06:21:27 11° WSW 06:21:51 10° WSW
CZ-4 R/B 2.2 06:18:29 10° NNE 06:22:29 54° E 06:26:31 10° S
Tiangong 2 2.8 06:20:11 10° SSW 06:23:00 31° SE 06:25:51 10° E
SKYMED 2 4.3 06:21:12 10° SSW 06:25:04 32° W 06:28:08 15° NW
PAYLOAD A 3.9 06:20:23 10° NNE 06:25:25 87° ESE 06:30:14 10° SSW
CSL-04 Debris 4.1 06:20:03 10° NNE 06:25:32 82° WNW 06:30:59 10° SSW
Cosmos 1464 Rocket 4.0 06:19:14 10° S 06:25:35 78° W 06:31:54 10° N
Cosmos 968 Rocket 4.2 06:22:13 10° SW 06:26:49 30° WNW 06:31:28 10° N
CZ-3 R/B 4.4 06:21:34 12° W 06:28:22 15° WSW 06:33:52 10° SSW
Cosmos 1603 3.9 06:24:09 10° NNW 06:29:48 74° ENE 06:35:26 10° SSE
Cosmos 2263 Rocket 3.6 06:27:15 10° S 06:32:32 42° ESE 06:37:51 10° NE
GPS 2-05 Rocket1 2.6 06:31:03 21° W 06:33:06 86° S 06:36:26 10° E
YAOGAN 1 3.6 06:29:57 10° NNE 06:34:11 50° E 06:38:22 10° S
Meteor 2-12 Rocket 4.4 06:29:17 10° SSW 06:35:21 65° W 06:41:29 10° N
Cosmos 1908 4.4 06:32:35 10° SSE 06:36:15 46° E 06:39:56 10° NNE
Cosmos 773 Rocket 4.0 06:34:52 10° NNW 06:40:09 76° WSW 06:45:26 10° S
Coronas F rocket 3.5 06:39:11 10° NNE 06:41:14 24° E 06:43:17 10° SE
Cosmos 1666 Rocket 3.9 06:42:05 10° N 06:46:32 72° E 06:51:00 10° SSE
Cosmos 2221 3.0 06:43:44 10° SSW 06:47:47 38° W 06:51:50 10° N
ISS -3.1 06:48:48 13° WNW 06:51:35 55° SW 06:54:46 10° SSE
OAO 2 Rocket 3.5 06:48:32 11° W 06:53:13 65° SSW 06:58:06 10° ESE
CSL-04 Rocket 4.1 06:49:47 10° N 06:54:34 36° WNW 06:59:20 10° SW
APEX 4.5 06:51:22 10° S 06:55:33 47° ESE 06:58:53 10° NE
NOSS 3-1 (A) 4.2 06:50:29 10° NNW 06:58:20 84° WSW 07:06:48 10° SSE
Cosmos 2058 3.8 06:54:49 10° NNW 06:58:21 28° W 07:01:52 10° SSW
Genesis I 3.2 06:54:45 10° NW 06:58:40 72° WSW 07:02:33 10° SSE
Cosmos 1184 Rocket 2.7 06:57:36 10° NNW 07:00:55 74° W 07:04:11 10° S
SPOT 3 Rocket 3.6 06:57:18 10° NNE 07:02:33 87° WNW 07:07:45 10° SSW
ATLAS 2AS CENTAUR R/B 4.2 06:59:37 10° NNW 07:07:01 38° NE 07:13:55 10° ESE
Cosmos 1726 4.3 07:03:59 10° SSE 07:07:15 31° E 07:10:32 10° NNE
SL-16 R/B 3.8 07:06:06 10° WNW 07:09:19 16° W 07:12:33 10° SW
Gbstr 26 Del rocket 4.0 07:04:03 10° SW 07:09:26 79° SE 07:16:13 10° NE
SL-8 R/B 4.5 07:04:56 10° NW 07:09:33 45° NNE 07:14:09 10° ESE
DELTA 2 R/B (1) 3.6 07:04:04 10° WSW 07:09:37 76° NNW 07:15:12 10° ENE
MOS 1 4.3 07:06:35 10° N 07:12:17 72° WNW 07:17:56 10° SSW
